Other Public Products
Issued by NWS Grand Forks, ND

Home | Current Version | Previous Version | Graphics & Text | Print | Product List | Glossary On
Versions: 1 2 3 4 5 6 7 8 9 10 11 12 13 14 15 16 17 18 19 20 21 22 23 24 25 26 27 28 29 30 31 32 33 34 35 36 37 38 39 40 41 42 43 44 45 46 47 48 49 50
000
FPUS83 KFGF 041310
OPUFGF
PRAIRIE TO PINES WEATHER ROUNDUP
NATIONAL WEATHER SERVICE EASTERN NORTH DAKOTA/GRAND FORKS ND
800 AM CDT FRI SEP 04 2015

 **SATELLITE DATA USED TO AUGMENT SKY COVER AT AUTOMATED STATIONS**
 *****  WEATHER ACROSS EASTERN NORTH DAKOTA  *****

CITY           SKY/WX    TMP DP  RH WIND       PRES   REMARKS
GRAND FORKS    MOSUNNY   73  70  90 SE10      29.78R
GRAND FORKS AF PTSUNNY   73  70  88 S12       29.78R
GRAND CITY NWS   N/A     72 N/A N/A SE5         N/A
BUXTON         NOT AVBL
DEVILS LAKE    CLOUDY    73  66  78 SE9       29.75S
FARGO          MOSUNNY   75  71  87 SE13      29.76S
WAHPETON ARPT  MOSUNNY   73  70  88 SE14G20   29.79R
$$

 *****  WEATHER ACROSS CENTRAL AND WESTERN NORTH DAKOTA  *****

CITY           SKY/WX    TMP DP  RH WIND       PRES   REMARKS
JAMESTOWN      CLOUDY    74  72  93 SE10      29.76R FOG
BISMARCK       CLOUDY    71  70  96 E5        29.74R
MINOT          CLOUDY    67  62  84 NW15      29.78R
MINOT AFB      CLOUDY    69  64  86 N13G23    29.79S
GARRISON         N/A     68  64  87 VRB3      29.75R
WILLISTON      CLOUDY    65  55  70 S8G24     29.81R
DICKINSON      CLOUDY    64  59  83 NW8       29.80R THUNDER
HETTINGER      CLOUDY    64  61  90 NW6       29.79S FOG
$$

 *****  OTHER OBSERVATIONS NORTHEAST NORTH DAKOTA  *****

CITY           SKY/WX    TMP DP  RH WIND       PRES   REMARKS
WALHALLA       FAIR      73  73 100 MISG      29.78S
LANGDON        PTSUNNY   73  73 100 SE10      29.79S FOG
CAVALIER       FOG       73  72  94 SE6       29.78R VSB 1
GRAFTON        CLOUDY    73  73 100 SE13      29.78S
CANDO          NOT AVBL
FORT TOTTEN      N/A     74  73  96 SE7       29.95S
ROLLA          CLOUDY    68  68 100 N5        29.80R
RUGBY          PTSUNNY   72  72 100 SE9       29.76R
 ***** THE ABOVE OBSERVATIONS ARE NON NWS ARE NOT QUALITY
        CONTROLLED AND MAY MIS-REPORT RAIN FOR SNOW...
$$

 *****  OTHER OBSERVATIONS SOUTHEAST NORTH DAKOTA *****

CITY           SKY/WX    TMP DP  RH WIND       PRES   REMARKS
COOPERSTOWN    NOT AVBL
VALLEY CITY    CLOUDY    75  75 100 SE10      29.77S FOG
OAKES            N/A     72  72 100 E8        29.74F
GWINNER          N/A     73  73 100 SE12      29.77S
SHEYENNE NWR     N/A     75  73  93 SE7       29.95S
BUFFALO        NOT AVBL
WYNDMERE         N/A     75  73  94 SE8         N/A
 ***** THE ABOVE OBSERVATIONS ARE NON NWS ARE NOT QUALITY
       CONTROLLED AND MAY MIS-REPORT RAIN FOR SNOW...
$$

  *****  WEATHER ACROSS NORTHERN MINNESOTA  *****

CITY           SKY/WX    TMP DP  RH WIND       PRES   REMARKS
FLAG ISLAND    CLOUDY    68  63  83 E6        29.88S
WARROAD        CLOUDY    70  64  83 SE7       29.86R
ROSEAU         CLOUDY    70  64  83 SE9       29.84R
HALLOCK        MOSUNNY   72  70  94 CALM      29.78S
THF RVR FALLS  PTSUNNY   70  70 100 SE10      29.82S
HALSTAD        NOT AVBL
FOSSTON        MOSUNNY   70  64  83 SE12G18   29.84F
BAUDETTE       PTSUNNY   63  58  83 SE12      29.89S
WASKISH        PTSUNNY   63  61  94 E5        29.89F
CROOKSTON      MOSUNNY   73  70  88 SE14      29.79S
$$
  *****  WEATHER ACROSS CENTRAL AND WEST MINNESOTA  *****

CITY           SKY/WX    TMP DP  RH WIND       PRES   REMARKS
BEMIDJI        CLOUDY    66  65  94 SE13      29.89F
PARK RAPIDS    CLOUDY    69  66  90 SE10      29.88F FOG
WADENA         CLOUDY    70  68  94 SE13G20   29.88R FOG
DETROIT LAKES  CLOUDY    72  70  94 SE12G22   29.86R FOG
MOORHEAD       SUNNY     73  72  94 SE10      29.78F
FERGUS FALLS   SUNNY     73  73 100 SE12      29.79F
ELBOW LAKE     FAIR      73  71  92 SE10G17   29.81F
MORRIS MN      SUNNY     73  72  94 SE13G20   29.81S
STAPLES        CLOUDY    70  66  88 SE8       29.89S FOG
WHEATON        SUNNY     72  70  94 SE13      29.80R
$$
  *****  WEATHER ELSEWHERE ACROSS MINNESOTA  *****

CITY           SKY/WX    TMP DP  RH WIND       PRES   REMARKS
DULUTH         MOSUNNY   62  60  93 E10       30.01R
INTRNTL FALLS  MOSUNNY   62  59  90 SE7       29.94S
ELY            SUNNY     55  54  94 CALM      30.01F
CLOQUET        CLOUDY    61  59  94 E7        30.00S
BRAINERD       SUNNY     67  65  93 SE9       29.92S
HIBBING        CLOUDY    65  62  90 SE9       29.99S
ALEXANDRIA     CLOUDY    73  71  93 SE13      29.87F
SAINT CLOUD    CLOUDY    70  68  93 SE9       29.91R
MINNEAPOLIS    CLOUDY    71  68  90 SE10      29.93S FOG
$$

  *****  WEATHER ACROSS SOUTH DAKOTA  *****

CITY           SKY/WX    TMP DP  RH WIND       PRES   REMARKS
SIOUX FALLS    CLOUDY    74  66  76 S10       29.85R
BROOKINGS      PTSUNNY   72  66  83 S14       29.85R
WATERTOWN      PTSUNNY   72  68  87 SE10      29.81R
HURON          CLOUDY    73  68  84 E8        29.76R
SISSETON         N/A     73  71  93 S9        29.77R
ABERDEEN       CLOUDY    72  69  90 S16       29.76R
MITCHELL       CLOUDY    74  67  78 S14       29.80R
PIERRE         CLOUDY    70  64  81 N9        29.69F
MOBRIDGE       LGT RAIN  73  73 100 S9        29.72R
RAPID CITY     MOCLDY    67  53  61 CALM      29.79S
$$

  *****  SOME WEATHER IN NEARBY STATES *****

CITY           SKY/WX    TMP DP  RH WIND       PRES   REMARKS
GLASGOW MT     PTCLDY    52  44  74 NW15      29.93R
GREAT FALLS MT CLOUDY    48  47  96 N7        29.97R
CHEYENNE WY    CLEAR     52  43  71 SW7       30.04R
SCOTTSBLUFF NE CLEAR     55  52  89 CALM      29.90R
OMAHA NE       CLOUDY    74  68  81 SE12      29.93R
DES MOINES IA  MOSUNNY   73  67  81 S8        29.96R
DAVENPORT IA   MOSUNNY   72  70  93 CALM      30.00R
CHICAGO IL     MOSUNNY   71  66  84 E7        30.01R
EAU CLAIRE WI  PTSUNNY   70  64  81 SE7       30.00R
LA CROSSE WI   MOSUNNY   71  66  84 SE6       29.99R
$$

  *****  SOME NATIONAL WEATHER *****

CITY           SKY/WX    TMP DP  RH WIND       PRES   REMARKS
LA GUARDIA NY  MOSUNNY   78  67  68 NE15G21   30.03R
RALEIGH NC     MOSUNNY   77  70  79 CALM      29.99R
ATLANTA GA     MOSUNNY   74  67  78 NW5       30.03R
NEW ORLEANS LA PTSUNNY   81  74  79 E5        29.99R
OKLAHOMA CITY  MOSUNNY   70  67  90 SE6       29.96R
ALBUQUERQUE NM CLOUDY    67  50  54 SE5       30.10R
SALT LAKE CITY MOCLDY    72  36  26 S16       29.85R
LOS ANGELES CA MOCLDY    68  57  68 E8        29.86R
BOISE ID       CLOUDY    51  38  60 W5        29.85R
SEATTLE WA     CLOUDY    52  49  89 NE8       30.00S
$$

*** WEATHER ACROSS MANITOBA...SASKATCHEWAN AND ONTARIO ***
                ***ONTARIO***

CITY           SKY/WX    TMP DP  RH WIND       PRES   REMARKS
GERALDTON      SUNNY     59  57  94 E2        30.10S
THUNDER BAY    MOSUNNY   57  55  94 S2        30.07S
SIOUX LOOKOUT  PTSUNNY   64  59  82 S9        29.98F
TORONTO        PTSUNNY   75  64  69 E7        30.09R
BIG TROUT LK   PTSUNNY   64  57  77 S9        29.88R
PICKLE LAKE    PTSUNNY   66  57  72 SW6       30.01R
DRYDEN         CLOUDY    66  59  77 S14       29.96F
KENORA         CLOUDY    66  61  82 S10G17    29.91F
$$
                *** MANITOBA***

CITY           SKY/WX    TMP DP  RH WIND       PRES   REMARKS
BRANDON        NOT AVBL
DAUPHIN        LGT RAIN  57  55  94 W5        29.95R
ISLAND LAKE    TSTM      64  64 100 S12G17    29.83R VSB 1/2
PILOT MOUND      N/A     72  70  94 SE6         N/A
THE PAS        MOCLDY    57  48  72 NW13      29.95F
THOMPSON       MOSUNNY   50  46  87 NW6       29.91R
WINNIPEG       CLOUDY    75  72  88 S14       29.79R
LYNN LAKE      CLEAR     46  45  93 SW5       29.92S
CHURCHILL      FOG       48  48 100 CALM      29.82R VSB 3/8
$$
                ***SASKATCHEWAN***

CITY           SKY/WX    TMP DP  RH WIND       PRES   REMARKS
ESTEVAN        TSTM      61  52  72 VRB9G36   29.82R
KINDERSLEY     CLOUDY    48  45  87 NE9       30.04R
LLOYDMINSTER   MOCLDY    37  37 100 NW2       30.09S
PRINCE ALBERT  MOCLDY    46  43  87 N7        30.04R
REGINA         MOCLDY    52  48  87 NE6       29.95R
YORKTON        PTCLDY    54  48  82 N10       29.94R


USA.gov is the U.S. government's official web portal to all federal, state and local government web resources and services.